When you browse on this site, cookies collect data to enhance your experience and personalize the content and advertising you see.
Visit our Privacy Policy to learn more. By continuing to use the site, you agree to this use of cookies and data.
  • Em Portugal
  • Lista de países
  • Para 7 dias
  • Temperatura da água
  • Mapa do tempo
  • Widgets de tempo
  • user-avatar
    Iniciar Sessão

    Previsão horária em Abovyan

    Hoje, 16 Outubro, Quarta-feira

    Tempo Temperatura Precipitação Vento Pressão Humidade
    00:00 +14°C° 0 mm 1 m/s 675 mmHg 32%
    01:00 +14°C° 0 mm 1 m/s 675 mmHg 33%
    02:00 +14°C° 0 mm 1 m/s 674 mmHg 34%
    03:00 +13°C° 0 mm 1 m/s 675 mmHg 35%
    04:00 +13°C° 0 mm 1 m/s 674 mmHg 35%
    05:00 +12°C° 0 mm 1 m/s 674 mmHg 35%
    06:00 +12°C° 0 mm 1 m/s 674 mmHg 36%
    07:00 +15°C° 0 mm 1 m/s 675 mmHg 29%
    08:00 +19°C° 0 mm 1 m/s 676 mmHg 23%
    09:00 +22°C° 0 mm 1 m/s 676 mmHg 17%
    10:00 +23°C° 0 mm 1 m/s 676 mmHg 16%
    11:00 +24°C° 0 mm 1 m/s 676 mmHg 14%
    12:00 +26°C° 0 mm 1 m/s 676 mmHg 13%
    13:00 +26°C° 0 mm 1 m/s 676 mmHg 13%
    14:00 +26°C° 0 mm 1 m/s 676 mmHg 12%
    15:00 +27°C° 0 mm 1 m/s 676 mmHg 12%
    16:00 +24°C° 0 mm 1 m/s 675 mmHg 16%
    17:00 +21°C° 0 mm 1 m/s 674 mmHg 20%
    18:00 +19°C° 0 mm 1 m/s 674 mmHg 24%
    19:00 +18°C° 0 mm 1 m/s 674 mmHg 24%
    20:00 +18°C° 0 mm 1 m/s 674 mmHg 24%
    21:00 +17°C° 0 mm 2 m/s 675 mmHg 24%
    22:00 +16°C° 0 mm 1 m/s 675 mmHg 27%
    23:00 +15°C° 0 mm 1 m/s 675 mmHg 30%

    Amanhã, 17 Outubro, Quinta-feira

    Tempo Temperatura Precipitação Vento Pressão Humidade
    00:00 +15°C° 0 mm 1 m/s 675 mmHg 32%
    01:00 +15°C° 0 mm 1 m/s 675 mmHg 34%
    02:00 +14°C° 0 mm 1 m/s 675 mmHg 35%
    03:00 +14°C° 0 mm 1 m/s 675 mmHg 36%
    04:00 +13°C° 0 mm 1 m/s 675 mmHg 36%
    05:00 +13°C° 0 mm 1 m/s 675 mmHg 35%
    06:00 +13°C° 0 mm 1 m/s 675 mmHg 35%
    07:00 +15°C° 0 mm 1 m/s 675 mmHg 29%
    08:00 +19°C° 0 mm 1 m/s 676 mmHg 23%
    09:00 +22°C° 0 mm 1 m/s 677 mmHg 17%
    10:00 +23°C° 0 mm 1 m/s 677 mmHg 16%
    11:00 +24°C° 0 mm 1 m/s 677 mmHg 15%
    12:00 +26°C° 0 mm 2 m/s 677 mmHg 14%
    13:00 +26°C° 0 mm 2 m/s 677 mmHg 13%
    14:00 +27°C° 0 mm 2 m/s 676 mmHg 13%
    15:00 +27°C° 0 mm 2 m/s 676 mmHg 12%
    16:00 +24°C° 0 mm 1 m/s 676 mmHg 15%
    17:00 +22°C° 0 mm 1 m/s 675 mmHg 18%
    18:00 +19°C° 0 mm 1 m/s 675 mmHg 20%
    19:00 +19°C° 0 mm 1 m/s 675 mmHg 20%
    20:00 +18°C° 0 mm 1 m/s 675 mmHg 21%
    21:00 +18°C° 0 mm 1 m/s 675 mmHg 21%
    22:00 +18°C° 0 mm 1 m/s 675 mmHg 22%
    23:00 +16°C° 0 mm 1 m/s 675 mmHg 24%

    Depois de amanhã, 18 Outubro, Sexta-feira

    Tempo Temperatura Precipitação Vento Pressão Humidade
    00:00 +16°C° 0 mm 1 m/s 674 mmHg 25%
    01:00 +16°C° 0 mm 1 m/s 674 mmHg 26%
    02:00 +15°C° 0 mm 1 m/s 674 mmHg 27%
    03:00 +15°C° 0 mm 1 m/s 674 mmHg 28%
    04:00 +15°C° 0 mm 1 m/s 674 mmHg 29%
    05:00 +15°C° 0 mm 1 m/s 674 mmHg 30%
    06:00 +14°C° 0 mm 1 m/s 674 mmHg 30%
    07:00 +18°C° 0 mm 1 m/s 674 mmHg 27%
    08:00 +20°C° 0 mm 1 m/s 675 mmHg 24%
    09:00 +23°C° 0 mm 1 m/s 675 mmHg 20%
    10:00 +24°C° 0 mm 1 m/s 675 mmHg 20%
    11:00 +25°C° 0 mm 1 m/s 675 mmHg 20%
    12:00 +26°C° 0 mm 2 m/s 675 mmHg 19%
    13:00 +27°C° 0 mm 2 m/s 675 mmHg 20%
    14:00 +27°C° 0 mm 2 m/s 674 mmHg 21%
    15:00 +27°C° 0 mm 2 m/s 674 mmHg 21%
    16:00 +25°C° 0 mm 1 m/s 674 mmHg 25%
    17:00 +23°C° 0 mm 1 m/s 673 mmHg 28%
    18:00 +20°C° 0 mm 1 m/s 673 mmHg 32%
    19:00 +20°C° 0 mm 1 m/s 673 mmHg 33%
    20:00 +20°C° 0 mm 1 m/s 673 mmHg 34%
    21:00 +18°C° 0 mm 2 m/s 673 mmHg 35%
    22:00 +19°C° 0 mm 1 m/s 673 mmHg 37%
    23:00 +18°C° 0 mm 1 m/s 673 mmHg 40%

    19 Outubro, Sábado

    Tempo Temperatura Precipitação Vento Pressão Humidade
    00:00 +16°C° 0 mm 1 m/s 673 mmHg 42%
    01:00 +16°C° 0 mm 1 m/s 673 mmHg 42%
    02:00 +16°C° 0 mm 1 m/s 672 mmHg 42%
    03:00 +16°C° 0 mm 1 m/s 672 mmHg 42%
    04:00 +15°C° 0 mm 1 m/s 672 mmHg 43%
    05:00 +15°C° 0 mm 1 m/s 673 mmHg 44%
    06:00 +15°C° 0 mm 1 m/s 673 mmHg 46%
    07:00 +18°C° 0.1 mm 1 m/s 673 mmHg 41%
    08:00 +20°C° 0.1 mm 1 m/s 674 mmHg 36%
    09:00 +22°C° 0.1 mm 1 m/s 674 mmHg 32%
    10:00 +23°C° 0 mm 1 m/s 674 mmHg 31%
    11:00 +25°C° 0 mm 1 m/s 674 mmHg 30%
    12:00 +26°C° 0 mm 2 m/s 674 mmHg 28%
    13:00 +26°C° 0.1 mm 3 m/s 674 mmHg 29%
    14:00 +26°C° 0.1 mm 4 m/s 674 mmHg 30%
    15:00 +26°C° 0.1 mm 5 m/s 674 mmHg 30%
    16:00 +23°C° 0.1 mm 4 m/s 674 mmHg 40%
    17:00 +20°C° 0.1 mm 3 m/s 673 mmHg 50%
    18:00 +18°C° 0.1 mm 3 m/s 673 mmHg 60%
    19:00 +18°C° 0.1 mm 2 m/s 674 mmHg 61%
    20:00 +19°C° 0.1 mm 1 m/s 674 mmHg 61%
    21:00 +19°C° 0.1 mm 1 m/s 674 mmHg 61%
    22:00 +19°C° 0.1 mm 1 m/s 674 mmHg 61%
    23:00 +19°C° 0.1 mm 1 m/s 674 mmHg 61%

    20 Outubro, Domingo

    Tempo Temperatura Precipitação Vento Pressão Humidade
    00:00 +18°C° 0.1 mm 1 m/s 674 mmHg 61%
    01:00 +18°C° 0.3 mm 1 m/s 674 mmHg 63%
    02:00 +18°C° 0.3 mm 1 m/s 674 mmHg 64%
    03:00 +18°C° 0.3 mm 1 m/s 674 mmHg 66%
    04:00 +16°C° 0.3 mm 1 m/s 674 mmHg 66%
    05:00 +16°C° 0.3 mm 1 m/s 674 mmHg 67%
    06:00 +16°C° 0.3 mm 1 m/s 674 mmHg 68%
    07:00 +18°C° 0.1 mm 1 m/s 674 mmHg 64%
    08:00 +19°C° 0.1 mm 1 m/s 674 mmHg 59%
    09:00 +20°C° 0.1 mm 1 m/s 675 mmHg 55%
    10:00 +21°C° 0 mm 1 m/s 675 mmHg 51%
    11:00 +22°C° 0 mm 1 m/s 675 mmHg 47%
    12:00 +23°C° 0 mm 1 m/s 674 mmHg 43%
    13:00 +24°C° 0.1 mm 2 m/s 674 mmHg 42%
    14:00 +24°C° 0.1 mm 2 m/s 674 mmHg 41%
    15:00 +24°C° 0.1 mm 2 m/s 674 mmHg 39%
    16:00 +23°C° 0.3 mm 2 m/s 674 mmHg 45%
    17:00 +20°C° 0.3 mm 2 m/s 674 mmHg 50%
    18:00 +19°C° 0.3 mm 2 m/s 673 mmHg 55%
    19:00 +18°C° 0.3 mm 2 m/s 674 mmHg 58%
    20:00 +18°C° 0.3 mm 2 m/s 674 mmHg 60%
    21:00 +17°C° 0.3 mm 2 m/s 674 mmHg 63%
    22:00 +17°C° 0.2 mm 2 m/s 674 mmHg 64%
    23:00 +17°C° 0.2 mm 2 m/s 674 mmHg 66%

    21 Outubro, Segunda-feira

    Tempo Temperatura Precipitação Vento Pressão Humidade
    00:00 +16°C° 0.2 mm 2 m/s 674 mmHg 67%
    01:00 +15°C° 0.1 mm 2 m/s 674 mmHg 69%
    02:00 +15°C° 0.1 mm 2 m/s 674 mmHg 71%
    03:00 +14°C° 0.1 mm 1 m/s 673 mmHg 73%
    04:00 +14°C° 0 mm 1 m/s 673 mmHg 73%
    05:00 +13°C° 0 mm 1 m/s 673 mmHg 74%
    06:00 +13°C° 0 mm 1 m/s 673 mmHg 74%
    07:00 +15°C° 0 mm 1 m/s 674 mmHg 68%
    08:00 +16°C° 0 mm 1 m/s 674 mmHg 61%
    09:00 +19°C° 0 mm 1 m/s 675 mmHg 55%
    10:00 +20°C° 0.1 mm 1 m/s 675 mmHg 53%
    11:00 +21°C° 0.1 mm 1 m/s 675 mmHg 50%
    12:00 +22°C° 0.1 mm 1 m/s 675 mmHg 48%
    13:00 +22°C° 0.2 mm 1 m/s 675 mmHg 47%
    14:00 +22°C° 0.2 mm 1 m/s 674 mmHg 46%
    15:00 +23°C° 0.2 mm 1 m/s 674 mmHg 45%
    16:00 +20°C° 0.3 mm 2 m/s 674 mmHg 49%
    17:00 +19°C° 0.3 mm 2 m/s 674 mmHg 54%
    18:00 +18°C° 0.3 mm 2 m/s 674 mmHg 58%
    19:00 +17°C° 0.2 mm 2 m/s 674 mmHg 61%
    20:00 +16°C° 0.2 mm 2 m/s 674 mmHg 63%
    21:00 +16°C° 0.2 mm 3 m/s 674 mmHg 65%
    22:00 +15°C° 0 mm 2 m/s 674 mmHg 67%
    23:00 +15°C° 0 mm 2 m/s 674 mmHg 68%
    Mostrar mais